Terug naar catalogus

SL-3 R/B

ActiefPO
NORAD 7275·ROCKET BODY·🇷🇺 Russia

Gelanceerd Apr 24, 1974 vanaf Plesetsk Cosmodrome

Loading…

Volgende Passages (komende 24 uur)

TLE

VersSource: Space-Track

Epoch: Sep 14, 2026, 12:06 UTC

1 07275U 74025B   26257.50479133 -.00000071  00000-0 -49797-4 0  9993
2 07275  81.2409 286.3280 0058615  93.9625 266.8248 14.07104548687758

Volg SL-3 R/B in realtime met AllMySat

Download on the App Store